Location: Chimay
(50.0486°N, 4.3171°E)
Time: 20:40:17
(UTC+00:00)

Cosmos 1500 Rocket - Pass Details

Date: 08 August 2020
Orbit: 604 x 630 km, 82.5° (Epoch: 21 September)

Event Time Altitude Azimuth Distance (km) Brightness Sun altitude
Rises 20:08:53 0° 201° (SSW) 2,848 6.8 -8.4°
Reaches altitude 10° 20:11:08 10° 207° (SSW) 1,949 6.0 -8.7°
Maximum altitude 20:15:20 52° 284° (WNW) 755 4.4 -9.3°
Drops below altitude 10° 20:19:36 10° 2° (N) 1,969 6.7 -9.8°
Sets 20:21:53 0° 7° (N) 2,881 7.5 -10.1°
